Time,TemperatureF,DewpointF,PressureIn,WindDirection,WindDirectionDegrees,WindSpeedMPH,WindSpeedGustMPH,Humidity,HourlyPrecipIn,Conditions,Clouds,dailyrainin,SolarRadiationWatts/m^2,SoftwareType,DateUTC
2013-05-29 00:03:00,52.6,48.0,29.66,SSE,149,0.0,-999.0,85,-99.99,,,0.02,0,weatherlink.com 1.10,2013-05-29 07:03:00,
2013-05-29 00:18:00,52.3,48.0,29.65,SSE,148,0.0,-999.0,86,-99.99,,,0.00,0,weatherlink.com 1.10,2013-05-29 07:18:00,
2013-05-29 00:33:00,52.0,48.0,29.65,SSE,163,0.0,-999.0,85,-99.99,,,0.00,0,weatherlink.com 1.10,2013-05-29 07:33:00,
2013-05-29 00:48:00,51.7,47.0,29.64,SE,145,0.0,-999.0,85,-99.99,,,0.00,0,weatherlink.com 1.10,2013-05-29 07:48:00,
2013-05-29 01:03:00,51.5,47.0,29.64,SE,145,0.0,-999.0,84,-99.99,,,0.00,0,weatherlink.com 1.10,2013-05-29 08:03:00,
2013-05-29 01:18:00,51.5,48.0,29.64,SE,146,0.0,-999.0,87,-99.99,,,0.00,0,weatherlink.com 1.10,2013-05-29 08:18:00,
2013-05-29 01:33:00,51.4,48.0,29.63,SE,146,0.0,-999.0,87,-99.99,,,0.00,0,weatherlink.com 1.10,2013-05-29 08:33:00,
2013-05-29 01:48:00,51.4,48.0,29.62,SE,146,0.0,-999.0,88,-99.99,,,0.00,0,weatherlink.com 1.10,2013-05-29 08:48:00,
2013-05-29 02:03:00,51.3,48.0,29.61,SE,146,0.0,-999.0,88,-99.99,,,0.00,0,weatherlink.com 1.10,2013-05-29 09:03:00,
2013-05-29 02:18:00,51.1,48.0,29.61,SSE,147,0.0,-999.0,89,-99.99,,,0.00,0,weatherlink.com 1.10,2013-05-29 09:18:00,
2013-05-29 02:33:00,50.9,48.0,29.60,SSE,147,0.0,-999.0,90,-99.99,,,0.00,0,weatherlink.com 1.10,2013-05-29 09:33:00,
2013-05-29 02:48:00,50.7,48.0,29.60,SE,146,0.0,-999.0,90,-99.99,,,0.00,0,weatherlink.com 1.10,2013-05-29 09:48:00,
2013-05-29 03:03:00,50.6,48.0,29.59,SSE,147,0.0,-999.0,91,-99.99,,,0.00,0,weatherlink.com 1.10,2013-05-29 10:03:00,
2013-05-29 03:19:00,50.6,48.0,29.59,SSE,148,0.0,-999.0,91,-99.99,,,0.00,0,weatherlink.com 1.10,2013-05-29 10:19:00,
2013-05-29 03:34:00,50.8,49.0,29.60,SSE,148,0.0,-999.0,92,-99.99,,,0.00,0,weatherlink.com 1.10,2013-05-29 10:34:00,
2013-05-29 03:48:00,50.5,49.0,29.60,SW,221,0.0,-999.0,93,-99.99,,,0.02,0,weatherlink.com 1.10,2013-05-29 10:48:00,
2013-05-29 04:03:00,50.1,48.0,29.60,WSW,238,0.0,-999.0,93,-99.99,,,0.04,0,weatherlink.com 1.10,2013-05-29 11:03:00,
2013-05-29 04:18:00,49.8,48.0,29.60,WSW,239,0.0,-999.0,94,-99.99,,,0.08,0,weatherlink.com 1.10,2013-05-29 11:18:00,
2013-05-29 04:33:00,49.4,48.0,29.60,WSW,238,0.0,-999.0,94,-99.99,,,0.10,0,weatherlink.com 1.10,2013-05-29 11:33:00,
2013-05-29 04:48:00,49.2,48.0,29.60,WSW,238,0.0,-999.0,94,-99.99,,,0.12,0,weatherlink.com 1.10,2013-05-29 11:48:00,
2013-05-29 05:03:00,49.2,48.0,29.59,WSW,239,0.0,-999.0,95,-99.99,,,0.13,0,weatherlink.com 1.10,2013-05-29 12:03:00,
2013-05-29 05:19:00,49.1,48.0,29.59,WSW,239,0.0,-999.0,95,-99.99,,,0.14,0,weatherlink.com 1.10,2013-05-29 12:19:00,
2013-05-29 05:34:00,49.2,48.0,29.60,WSW,239,0.0,-999.0,95,-99.99,,,0.16,0,weatherlink.com 1.10,2013-05-29 12:34:00,
2013-05-29 05:48:00,49.2,48.0,29.59,WSW,239,0.0,-999.0,96,-99.99,,,0.18,12,weatherlink.com 1.10,2013-05-29 12:48:00,
2013-05-29 06:03:00,49.3,48.0,29.59,WSW,239,0.0,-999.0,96,-99.99,,,0.19,16,weatherlink.com 1.10,2013-05-29 13:03:00,
2013-05-29 06:19:00,49.4,48.0,29.59,WSW,239,0.0,-999.0,96,-99.99,,,0.20,26,weatherlink.com 1.10,2013-05-29 13:19:00,
2013-05-29 06:34:00,49.3,48.0,29.59,WSW,239,0.0,-999.0,96,-99.99,,,0.21,46,weatherlink.com 1.10,2013-05-29 13:34:00,
2013-05-29 06:49:00,49.5,48.0,29.59,WSW,238,0.0,-999.0,96,-99.99,,,0.22,51,weatherlink.com 1.10,2013-05-29 13:49:00,
2013-05-29 07:03:00,49.7,49.0,29.59,WSW,238,0.0,-999.0,96,-99.99,,,0.22,63,weatherlink.com 1.10,2013-05-29 14:03:00,
2013-05-29 07:18:00,50.1,49.0,29.59,WSW,238,0.0,-999.0,96,-99.99,,,0.22,90,weatherlink.com 1.10,2013-05-29 14:18:00,
2013-05-29 07:34:00,50.3,49.0,29.60,WSW,239,0.0,-999.0,96,-99.99,,,0.22,107,weatherlink.com 1.10,2013-05-29 14:34:00,
2013-05-29 07:49:00,51.0,50.0,29.60,WSW,238,0.0,-999.0,96,-99.99,,,0.22,121,weatherlink.com 1.10,2013-05-29 14:49:00,
2013-05-29 08:04:00,51.2,50.0,29.60,WSW,238,0.0,-999.0,96,-99.99,,,0.22,113,weatherlink.com 1.10,2013-05-29 15:04:00,
2013-05-29 08:18:00,51.3,50.0,29.60,WSW,239,0.0,-999.0,96,-99.99,,,0.22,169,weatherlink.com 1.10,2013-05-29 15:18:00,
2013-05-29 08:33:00,51.7,51.0,29.61,SW,234,0.0,-999.0,96,-99.99,,,0.22,155,weatherlink.com 1.10,2013-05-29 15:33:00,
2013-05-29 08:49:00,51.6,50.0,29.61,SW,234,0.0,-999.0,95,-99.99,,,0.22,153,weatherlink.com 1.10,2013-05-29 15:49:00,
2013-05-29 09:04:00,51.7,50.0,29.61,South,173,0.0,-999.0,95,-99.99,,,0.22,105,weatherlink.com 1.10,2013-05-29 16:04:00,
2013-05-29 09:19:00,51.8,51.0,29.61,South,173,0.0,-999.0,95,-99.99,,,0.22,171,weatherlink.com 1.10,2013-05-29 16:19:00,
2013-05-29 09:33:00,52.3,51.0,29.62,SSE,148,0.0,-999.0,95,-99.99,,,0.22,234,weatherlink.com 1.10,2013-05-29 16:33:00,
2013-05-29 09:49:00,52.2,51.0,29.63,SE,140,0.0,-999.0,94,-99.99,,,0.22,162,weatherlink.com 1.10,2013-05-29 16:49:00,
2013-05-29 10:04:00,52.4,51.0,29.63,SE,128,0.0,-999.0,95,-99.99,,,0.22,216,weatherlink.com 1.10,2013-05-29 17:04:00,
2013-05-29 10:19:00,52.6,51.0,29.63,NE,48,0.0,-999.0,93,-99.99,,,0.22,153,weatherlink.com 1.10,2013-05-29 17:19:00,
2013-05-29 10:33:00,52.6,51.0,29.64,SSE,148,0.0,-999.0,93,-99.99,,,0.22,160,weatherlink.com 1.10,2013-05-29 17:33:00,
2013-05-29 10:48:00,52.1,50.0,29.64,SSE,166,0.0,-999.0,93,-99.99,,,0.22,116,weatherlink.com 1.10,2013-05-29 17:48:00,
2013-05-29 11:03:00,52.4,51.0,29.65,SW,223,0.0,-999.0,95,-99.99,,,0.22,193,weatherlink.com 1.10,2013-05-29 18:03:00,
2013-05-29 11:18:00,52.8,52.0,29.65,SW,222,0.0,-999.0,95,-99.99,,,0.22,258,weatherlink.com 1.10,2013-05-29 18:18:00,
2013-05-29 11:33:00,53.8,52.0,29.66,WSW,238,1.0,-999.0,94,-99.99,,,0.22,568,weatherlink.com 1.10,2013-05-29 18:33:00,
2013-05-29 11:49:00,54.3,52.0,29.66,WSW,239,0.0,-999.0,90,-99.99,,,0.22,673,weatherlink.com 1.10,2013-05-29 18:49:00,
2013-05-29 12:04:00,54.9,52.0,29.67,SSW,196,1.0,-999.0,89,-99.99,,,0.22,701,weatherlink.com 1.10,2013-05-29 19:04:00,
2013-05-29 12:18:00,55.8,52.0,29.67,SW,225,0.0,-999.0,86,-99.99,,,0.22,221,weatherlink.com 1.10,2013-05-29 19:18:00,
2013-05-29 12:34:00,55.5,51.0,29.68,SW,217,2.0,-999.0,85,-99.99,,,0.22,362,weatherlink.com 1.10,2013-05-29 19:34:00,
2013-05-29 12:49:00,55.9,52.0,29.68,SSE,163,3.0,-999.0,88,-99.99,,,0.22,418,weatherlink.com 1.10,2013-05-29 19:49:00,
2013-05-29 13:04:00,56.0,52.0,29.68,ESE,116,0.0,-999.0,86,-99.99,,,0.22,387,weatherlink.com 1.10,2013-05-29 20:04:00,
2013-05-29 13:18:00,56.3,53.0,29.69,SE,144,0.0,-999.0,88,-99.99,,,0.22,167,weatherlink.com 1.10,2013-05-29 20:18:00,
2013-05-29 13:33:00,55.9,52.0,29.69,South,169,0.0,-999.0,88,-99.99,,,0.22,373,weatherlink.com 1.10,2013-05-29 20:33:00,
2013-05-29 13:49:00,56.4,52.0,29.69,SSE,148,5.0,-999.0,86,-99.99,,,0.22,313,weatherlink.com 1.10,2013-05-29 20:49:00,
2013-05-29 14:03:00,56.7,52.0,29.70,SW,219,0.0,-999.0,85,-99.99,,,0.22,323,weatherlink.com 1.10,2013-05-29 21:03:00,
2013-05-29 14:18:00,57.3,53.0,29.70,ESE,120,0.0,-999.0,85,-99.99,,,0.22,381,weatherlink.com 1.10,2013-05-29 21:18:00,
2013-05-29 14:33:00,58.9,54.0,29.70,East,88,2.0,-999.0,83,-99.99,,,0.22,167,weatherlink.com 1.10,2013-05-29 21:33:00,
2013-05-29 14:48:00,58.9,52.0,29.70,WSW,237,2.0,-999.0,78,-99.99,,,0.22,308,weatherlink.com 1.10,2013-05-29 21:48:00,
2013-05-29 15:04:00,59.6,52.0,29.70,SSW,199,2.0,-999.0,75,-99.99,,,0.22,548,weatherlink.com 1.10,2013-05-29 22:04:00,
2013-05-29 15:19:00,61.2,53.0,29.71,SW,230,2.0,-999.0,74,-99.99,,,0.22,930,weatherlink.com 1.10,2013-05-29 22:19:00,
2013-05-29 15:33:00,62.2,52.0,29.71,SW,226,0.0,-999.0,69,-99.99,,,0.22,269,weatherlink.com 1.10,2013-05-29 22:33:00,
2013-05-29 15:48:00,60.7,51.0,29.72,WSW,239,1.0,-999.0,71,-99.99,,,0.22,302,weatherlink.com 1.10,2013-05-29 22:48:00,
2013-05-29 16:03:00,59.1,51.0,29.73,NW,315,3.0,-999.0,74,-99.99,,,0.22,265,weatherlink.com 1.10,2013-05-29 23:03:00,
2013-05-29 16:19:00,59.7,51.0,29.74,WSW,251,0.0,-999.0,72,-99.99,,,0.22,271,weatherlink.com 1.10,2013-05-29 23:19:00,
2013-05-29 16:34:00,61.0,53.0,29.75,ESE,117,3.0,-999.0,76,-99.99,,,0.22,858,weatherlink.com 1.10,2013-05-29 23:34:00,
2013-05-29 16:49:00,60.0,53.0,29.75,WNW,296,0.0,-999.0,77,-99.99,,,0.22,162,weatherlink.com 1.10,2013-05-29 23:49:00,
2013-05-29 17:04:00,57.1,52.0,29.75,ENE,60,0.0,-999.0,82,-99.99,,,0.22,214,weatherlink.com 1.10,2013-05-30 00:04:00,
2013-05-29 17:18:00,56.1,51.0,29.76,SE,146,0.0,-999.0,83,-99.99,,,0.22,155,weatherlink.com 1.10,2013-05-30 00:18:00,
2013-05-29 17:33:00,55.4,51.0,29.77,NNE,13,3.0,-999.0,84,-99.99,,,0.22,100,weatherlink.com 1.10,2013-05-30 00:33:00,
2013-05-29 17:48:00,54.8,51.0,29.77,North,349,0.0,-999.0,86,-99.99,,,0.22,137,weatherlink.com 1.10,2013-05-30 00:48:00,
2013-05-29 18:04:00,54.0,50.0,29.78,NW,314,0.0,-999.0,87,-99.99,,,0.22,95,weatherlink.com 1.10,2013-05-30 01:04:00,
2013-05-29 18:19:00,53.7,50.0,29.78,North,9,0.0,-999.0,87,-99.99,,,0.22,130,weatherlink.com 1.10,2013-05-30 01:19:00,
2013-05-29 18:34:00,53.8,50.0,29.78,North,9,3.0,-999.0,88,-99.99,,,0.22,139,weatherlink.com 1.10,2013-05-30 01:34:00,
2013-05-29 18:48:00,53.6,50.0,29.78,North,349,0.0,-999.0,87,-99.99,,,0.22,111,weatherlink.com 1.10,2013-05-30 01:48:00,
2013-05-29 19:03:00,53.4,49.0,29.79,East,83,0.0,-999.0,86,-99.99,,,0.22,97,weatherlink.com 1.10,2013-05-30 02:03:00,
2013-05-29 19:19:00,53.8,50.0,29.79,NNE,17,1.0,-999.0,86,-99.99,,,0.22,134,weatherlink.com 1.10,2013-05-30 02:19:00,
2013-05-29 19:34:00,53.9,50.0,29.80,North,9,1.0,-999.0,86,-99.99,,,0.22,146,weatherlink.com 1.10,2013-05-30 02:34:00,
2013-05-29 19:49:00,53.6,50.0,29.80,NNE,19,0.0,-999.0,86,-99.99,,,0.22,46,weatherlink.com 1.10,2013-05-30 02:49:00,
2013-05-29 20:03:00,53.3,50.0,29.81,NNE,18,0.0,-999.0,87,-99.99,,,0.22,26,weatherlink.com 1.10,2013-05-30 03:03:00,
2013-05-29 20:18:00,53.2,50.0,29.81,NNE,18,0.0,-999.0,88,-99.99,,,0.22,7,weatherlink.com 1.10,2013-05-30 03:18:00,
2013-05-29 20:33:00,52.9,50.0,29.81,NNE,18,0.0,-999.0,88,-99.99,,,0.22,5,weatherlink.com 1.10,2013-05-30 03:33:00,
2013-05-29 20:48:00,52.7,49.0,29.81,NNE,19,0.0,-999.0,88,-99.99,,,0.22,0,weatherlink.com 1.10,2013-05-30 03:48:00,
2013-05-29 21:04:00,52.6,50.0,29.82,NNE,19,0.0,-999.0,89,-99.99,,,0.22,0,weatherlink.com 1.10,2013-05-30 04:04:00,
2013-05-29 21:19:00,52.4,50.0,29.83,NNE,18,0.0,-999.0,90,-99.99,,,0.22,0,weatherlink.com 1.10,2013-05-30 04:19:00,
2013-05-29 21:33:00,52.2,49.0,29.83,NNE,19,0.0,-999.0,90,-99.99,,,0.22,0,weatherlink.com 1.10,2013-05-30 04:33:00,
2013-05-29 21:48:00,52.2,49.0,29.83,NNE,19,0.0,-999.0,90,-99.99,,,0.22,0,weatherlink.com 1.10,2013-05-30 04:48:00,
2013-05-29 22:03:00,52.1,50.0,29.84,NNE,19,0.0,-999.0,91,-99.99,,,0.22,0,weatherlink.com 1.10,2013-05-30 05:03:00,
2013-05-29 22:18:00,52.1,49.0,29.85,South,190,0.0,-999.0,89,-99.99,,,0.22,0,weatherlink.com 1.10,2013-05-30 05:18:00,
2013-05-29 22:34:00,52.1,49.0,29.85,SSE,160,0.0,-999.0,88,-99.99,,,0.22,0,weatherlink.com 1.10,2013-05-30 05:34:00,
2013-05-29 22:49:00,52.2,49.0,29.85,South,179,0.0,-999.0,88,-99.99,,,0.22,0,weatherlink.com 1.10,2013-05-30 05:49:00,
2013-05-29 23:04:00,52.2,49.0,29.86,SW,219,2.0,-999.0,88,-99.99,,,0.22,0,weatherlink.com 1.10,2013-05-30 06:04:00,
2013-05-29 23:18:00,52.0,49.0,29.86,SW,223,0.0,-999.0,88,-99.99,,,0.22,0,weatherlink.com 1.10,2013-05-30 06:18:00,
2013-05-29 23:33:00,51.8,49.0,29.86,SSW,193,0.0,-999.0,89,-99.99,,,0.22,0,weatherlink.com 1.10,2013-05-30 06:33:00,
2013-05-29 23:48:00,51.7,49.0,29.86,South,184,0.0,-999.0,89,-99.99,,,0.22,0,weatherlink.com 1.10,2013-05-30 06:48:00,